Weather in Veshenskaya

Russia / Rostov Oblast     49°37′54″N   41°43′42″E
temp.,
°C
wind,
m/s
gust,
m/s
humid.,
%
clouds,
%
prec.,
mm/h
press.,
hPa
HPBL,
m
22 january, sat
sat2200:00−4sw2398100 0.1 101152
03:00−5ssw2497100 0.1 101156
06:00−4ssw3896100 0.1 1012233
09:00−4ssw4994100 0.3 1013396
12:00−3sw489093 0.1 1014687
15:00−3ssw369122 0.1 1015344
18:00−10s2298100 0.0 101716
21:00−12sse1199100 0.0 101810
23 january, sun
sun2300:00−10sse1197100 0.0 101911
03:00−12e1199100 0.0 10209
06:00−9ene2298100 0.0 102036
09:00−6ene3796100 0.0 1021173
12:00−4ne5993100 0.1 1021365
15:00−3nne61396100 1.0 1021588
18:00−3ne71295100 0.7 1021433
21:00−1ene61297100 1.6 1021539
24 january, mon
mon2400:00−3ene71291100 0.3 1023464
03:00−5ene71392100 0.3 1024418
06:00−7ene61392100 0.0 1025353
09:00−7ene71392100 0.1 1027392
12:00−6ene61292100 0.0 1027460
15:00−5ene71292100 0.0 1027468
18:00−6e71391100 0.0 1028440
21:00−7e61293100 0.1 1028396
25 january, tue
tue2500:00−8e61195100 0.1 1028311
03:00−8e61195100 0.4 1027285
06:00−7e5995100 0.4 1027241
09:00−6ese4896100 0.4 1028217
12:00−3ese4596100 0.1 1027252
15:00−1se5694100 0.1 1026375
18:00−2se2597100 0.0 1026207
21:00−2ese3698100 0.1 1025204
26 january, wed
wed2600:00−2ese2498100 0.1 1024121
03:00−2sse2598100 1.4 1023204
06:00−2s2398100 2.0 1022115
09:00−3s259899 2.4 1022138
12:00−2sw358844 0.1 1021289
15:00−3ssw2394100 0.1 1021163
18:00−5ene1198100 0.0 102216
21:00−4e2297100 0.0 102144